TimeCST,TemperatureF,Dew PointF,Humidity,Sea Level PressureIn,VisibilityMPH,Wind Direction,Wind SpeedMPH,Gust SpeedMPH,PrecipitationIn,Events,Conditions,WindDirDegrees,DateUTC
12:15 AM,26.6,24.8,93,29.58,8.0,Calm,Calm,-,N/A,,Unknown,0,2014-01-11 06:15:00
12:35 AM,26.6,24.8,93,29.58,10.0,WSW,4.6,-,N/A,,Unknown,250,2014-01-11 06:35:00
12:55 AM,24.8,23.0,93,29.58,10.0,Variable,3.5,-,N/A,,Unknown,0,2014-01-11 06:55:00
1:15 AM,24.8,23.0,93,29.58,10.0,West,3.5,-,N/A,,Unknown,280,2014-01-11 07:15:00
1:35 AM,24.8,21.2,86,29.59,10.0,Calm,Calm,-,N/A,,Unknown,0,2014-01-11 07:35:00
1:55 AM,24.8,21.2,86,29.58,10.0,Calm,Calm,-,N/A,,Unknown,0,2014-01-11 07:55:00
2:15 AM,24.8,23.0,93,29.58,10.0,West,4.6,-,N/A,,Unknown,280,2014-01-11 08:15:00
2:35 AM,23.0,21.2,93,29.58,10.0,SW,5.8,-,N/A,,Unknown,220,2014-01-11 08:35:00
2:55 AM,17.6,17.6,100,29.59,10.0,SW,4.6,-,N/A,,Unknown,220,2014-01-11 08:55:00
3:15 AM,23.0,21.2,93,29.60,10.0,Calm,Calm,-,N/A,,Unknown,0,2014-01-11 09:15:00
3:35 AM,24.8,21.2,86,29.59,10.0,SSW,5.8,-,N/A,,Unknown,210,2014-01-11 09:35:00
3:55 AM,23.0,21.2,93,29.60,10.0,West,3.5,-,N/A,,Unknown,260,2014-01-11 09:55:00
4:15 AM,24.8,21.2,86,29.60,10.0,WNW,8.1,-,N/A,,Unknown,290,2014-01-11 10:15:00
4:35 AM,24.8,21.2,86,29.61,10.0,WNW,5.8,-,N/A,,Unknown,300,2014-01-11 10:35:00
4:55 AM,24.8,21.2,86,29.61,10.0,WNW,5.8,-,N/A,,Unknown,290,2014-01-11 10:55:00
5:15 AM,24.8,21.2,86,29.62,10.0,Calm,Calm,-,N/A,,Unknown,0,2014-01-11 11:15:00
5:35 AM,24.8,21.2,86,29.62,10.0,Variable,4.6,-,N/A,,Unknown,0,2014-01-11 11:35:00
5:55 AM,23.0,21.2,93,29.63,10.0,West,5.8,-,N/A,,Unknown,280,2014-01-11 11:55:00
6:15 AM,23.0,21.2,93,29.64,10.0,Calm,Calm,-,N/A,,Unknown,0,2014-01-11 12:15:00
6:35 AM,24.8,21.2,86,29.65,10.0,NW,4.6,-,N/A,,Unknown,320,2014-01-11 12:35:00
6:55 AM,24.8,21.2,86,29.66,10.0,WNW,9.2,-,N/A,,Unknown,300,2014-01-11 12:55:00
7:15 AM,24.8,21.2,86,29.67,10.0,NW,8.1,13.8,N/A,,Unknown,310,2014-01-11 13:15:00
7:35 AM,24.8,21.2,86,29.68,10.0,WNW,4.6,-,N/A,,Unknown,300,2014-01-11 13:35:00
7:55 AM,24.8,21.2,86,29.69,10.0,WNW,5.8,-,N/A,,Unknown,300,2014-01-11 13:55:00
8:15 AM,24.8,21.2,86,29.70,10.0,NW,10.4,-,N/A,,Unknown,310,2014-01-11 14:15:00
8:35 AM,24.8,21.2,86,29.71,10.0,NW,10.4,-,N/A,,Clear,310,2014-01-11 14:35:00
8:55 AM,24.8,21.2,86,29.72,10.0,NW,13.8,-,N/A,,Scattered Clouds,310,2014-01-11 14:55:00
9:15 AM,24.8,21.2,86,29.74,10.0,NW,21.9,28.8,N/A,,Overcast,320,2014-01-11 15:15:00
9:35 AM,23.0,21.2,93,29.74,10.0,NNW,12.7,21.9,N/A,,Overcast,330,2014-01-11 15:35:00
9:55 AM,24.8,23.0,93,29.75,10.0,NW,11.5,23.0,N/A,,Overcast,320,2014-01-11 15:55:00
10:15 AM,24.8,24.8,100,29.76,10.0,NW,13.8,20.7,N/A,,Overcast,320,2014-01-11 16:15:00
10:35 AM,26.6,24.8,93,29.77,10.0,NW,16.1,-,N/A,,Overcast,310,2014-01-11 16:35:00
10:55 AM,26.6,24.8,93,29.79,9.0,NW,13.8,19.6,N/A,,Overcast,310,2014-01-11 16:55:00
11:15 AM,26.6,26.6,100,29.79,9.0,NW,11.5,-,N/A,,Overcast,310,2014-01-11 17:15:00
11:35 AM,26.6,26.6,100,29.79,9.0,WNW,11.5,18.4,N/A,,Overcast,300,2014-01-11 17:35:00
11:55 AM,28.4,26.6,93,29.79,9.0,NW,11.5,-,N/A,,Overcast,310,2014-01-11 17:55:00
12:15 PM,28.4,26.6,93,29.78,9.0,NW,12.7,-,N/A,,Overcast,310,2014-01-11 18:15:00
12:35 PM,28.4,26.6,93,29.77,9.0,NW,13.8,-,N/A,,Overcast,310,2014-01-11 18:35:00
12:55 PM,28.4,26.6,93,29.77,10.0,WNW,10.4,17.3,N/A,,Overcast,300,2014-01-11 18:55:00
1:15 PM,28.4,26.6,93,29.78,10.0,NW,12.7,19.6,N/A,,Overcast,320,2014-01-11 19:15:00
1:35 PM,30.2,26.6,86,29.77,-9999.0,NW,11.5,-,N/A,,Unknown,310,2014-01-11 19:35:00
1:55 PM,32.0,28.4,87,29.76,10.0,NW,5.8,-,N/A,,Overcast,310,2014-01-11 19:55:00
2:15 PM,33.8,28.4,81,29.76,10.0,NW,5.8,-,N/A,,Mostly Cloudy,310,2014-01-11 20:15:00
2:35 PM,33.8,28.4,81,29.76,10.0,WNW,9.2,-,N/A,,Partly Cloudy,300,2014-01-11 20:35:00
2:55 PM,35.6,28.4,75,29.76,10.0,Variable,6.9,-,N/A,,Clear,0,2014-01-11 20:55:00
3:15 PM,35.6,28.4,75,29.76,10.0,WNW,9.2,-,N/A,,Clear,300,2014-01-11 21:15:00
3:35 PM,37.4,28.4,70,29.77,10.0,West,9.2,-,N/A,,Clear,270,2014-01-11 21:35:00
3:55 PM,37.4,26.6,65,29.77,10.0,West,9.2,-,N/A,,Clear,270,2014-01-11 21:55:00
4:15 PM,37.4,26.6,65,29.77,10.0,West,5.8,-,N/A,,Clear,280,2014-01-11 22:15:00
4:35 PM,35.6,26.6,70,29.77,10.0,WSW,5.8,-,N/A,,Clear,250,2014-01-11 22:35:00
4:55 PM,35.6,26.6,70,29.76,10.0,WSW,4.6,-,N/A,,Clear,240,2014-01-11 22:55:00
5:15 PM,32.0,24.8,75,29.76,10.0,SW,4.6,-,N/A,,Clear,230,2014-01-11 23:15:00
5:35 PM,30.2,24.8,80,29.76,9.0,South,4.6,-,N/A,,Unknown,180,2014-01-11 23:35:00
5:55 PM,30.2,24.8,80,29.76,10.0,SSE,4.6,-,N/A,,Unknown,160,2014-01-11 23:55:00
6:15 PM,26.6,23.0,86,29.75,10.0,Calm,Calm,-,N/A,,Unknown,0,2014-01-12 00:15:00
6:35 PM,24.8,21.2,86,29.75,10.0,Calm,Calm,-,N/A,,Unknown,0,2014-01-12 00:35:00
6:55 PM,23.0,21.2,93,29.74,10.0,Calm,Calm,-,N/A,,Unknown,0,2014-01-12 00:55:00
7:15 PM,26.6,23.0,86,29.74,10.0,SSW,4.6,-,N/A,,Unknown,200,2014-01-12 01:15:00
7:35 PM,26.6,23.0,86,29.73,10.0,South,6.9,-,N/A,,Clear,170,2014-01-12 01:35:00
7:55 PM,23.0,19.4,86,29.73,10.0,South,3.5,-,N/A,,Unknown,180,2014-01-12 01:55:00
8:15 PM,23.0,21.2,93,29.73,10.0,South,4.6,-,N/A,,Unknown,180,2014-01-12 02:15:00
8:35 PM,24.8,23.0,93,29.72,10.0,South,6.9,-,N/A,,Unknown,190,2014-01-12 02:35:00
8:55 PM,23.0,21.2,93,29.71,10.0,South,3.5,-,N/A,,Unknown,190,2014-01-12 02:55:00
9:15 PM,23.0,21.2,93,29.72,10.0,SSW,4.6,-,N/A,,Unknown,200,2014-01-12 03:15:00
9:35 PM,28.4,24.8,86,29.71,10.0,South,9.2,-,N/A,,Unknown,180,2014-01-12 03:35:00
9:55 PM,30.2,24.8,80,29.70,10.0,South,9.2,-,N/A,,Unknown,180,2014-01-12 03:55:00
10:15 PM,30.2,24.8,80,29.68,10.0,South,10.4,-,N/A,,Unknown,180,2014-01-12 04:15:00
10:35 PM,30.2,24.8,80,29.68,10.0,South,9.2,-,N/A,,Unknown,170,2014-01-12 04:35:00
10:55 PM,30.2,23.0,75,29.67,10.0,South,9.2,-,N/A,,Unknown,170,2014-01-12 04:55:00
11:15 PM,30.2,23.0,75,29.64,10.0,South,9.2,-,N/A,,Unknown,170,2014-01-12 05:15:00
11:35 PM,30.2,24.8,80,29.62,10.0,SSE,6.9,-,N/A,,Unknown,160,2014-01-12 05:35:00
11:55 PM,30.2,23.0,75,29.61,10.0,South,9.2,-,N/A,,Unknown,170,2014-01-12 05:55:00